Regional Weather Roundup
Issued by NWS Northern Indiana

Home | Current Version | Previous Version | Text Only | Print | Product List | Glossary Off
Versions: 1 2 3 4 5 6 7 8 9 10 11 12 13 14 15 16 17 18 19 20 21 22 23 24 25 26 27 28 29 30 31 32 33 34 35 36 37 38 39 40 41 42 43 44 45 46 47 48 49 50

000
ASUS43 KIWX 222300
RWRIWX

KIWX WEATHER ROUNDUP
NATIONAL WEATHER SERVICE NORTHERN INDIANA
700 PM EDT SAT JUL 22 2017

NOTE: "FAIR" INDICATES FEW OR NO CLOUDS BELOW 12,000 FEET WITH NO
SIGNIFICANT WEATHER AND/OR OBSTRUCTIONS TO VISIBILITY.

* THESE STATIONS ARE NOT UNDER NWS QUALITY CONTROL. THEY ALSO MAY NOT
  REPORT WEATHER SUCH AS PRECIPITATION OR FOG.

INZ001>027-230000-
NORTHERN INDIANA

CITY           SKY/WX    TMP DP  RH WIND       PRES   REMARKS
GARY*          PTSUNNY   82  70  65 CALM      29.81S
MICHIGAN CITY* SUNNY     79  68  69 N6        29.82S
SOUTH BEND     MOSUNNY   80  69  69 NW10      29.82S
GOSHEN         MOSUNNY   81  67  62 NW13      29.81S
MONTICELLO*    SUNNY     83  74  73 NW3       29.81S
WARSAW*        SUNNY     81  68  65 NW9       29.82S
FORT WAYNE     MOSUNNY   83  72  69 W7        29.81S
PERU/GRISSOM   MOSUNNY   83  72  67 NW9       29.81F

$$
INZ028>050-230000-
CENTRAL INDIANA

CITY           SKY/WX    TMP DP  RH WIND       PRES   REMARKS
LAFAYETTE      PTSUNNY   82  75  79 NW5       29.81F
KOKOMO*        MOSUNNY   83  72  69 NW8       29.83F
MUNCIE*        MOSUNNY   85  72  65 NW8       29.83R
INDIANAPOLIS   CLOUDY    84  72  67 N7        29.81F

$$
MIZ043>046-050>051-056>058-064>065-071>073-077>080-230000-
SOUTHWEST LOWER MICHIGAN

CITY           SKY/WX    TMP DP  RH WIND       PRES   REMARKS
BATTLE CREEK   CLOUDY    78  70  76 W13       29.81S
BENTON HARBOR  PTSUNNY   76  68  76 W7        29.81F
COLDWATER*     CLOUDY    79  69  71 NW9G16    29.81R
HILLSDALE*     CLOUDY    81  68  65 NW12      29.80R
HOLLAND        CLOUDY    71  68  90 W7        29.82S
GRAND RAPIDS   PTSUNNY   77  70  79 N6        29.79S
KALAMAZOO      CLOUDY    77  67  71 NW12      29.81S
STURGIS*       PTSUNNY   78  69  74 NW9       29.81R
THREE RIVERS*  CLOUDY    77  68  73 NW9       29.82S

$$
OHZ001>008-015>018-024>025-230000-
NORTHWEST OHIO

CITY           SKY/WX    TMP DP  RH WIND       PRES   REMARKS
DEFIANCE       MOSUNNY  N/A N/A N/A NW10      29.78S
FINDLAY        MOSUNNY   85  69  58 W13       29.77S
TOLEDO EXPRESS SUNNY     84  71  65 W14       29.76R
TOLEDO METCALF MOSUNNY   85  73  67 NW12      29.76R
LIMA           SUNNY     81  72  74 W8        29.81R

$$
AND FOR LAKE MICHIGAN COASTAL AND OPEN LAKE BUOY OBSERVATIONS

STATION/POSITION TEMP    WIND        PRES    VSBY  WAVE
                 AIR SEA DIR/SP/G                  HT/PER
                 (F)     (DEG/KT/KT) (MB)    (MI)  (FT/S)
CALUMET HARBOR    76      50/  5/  7 1009.1S
MICHIGAN CITY     79        CALM       N/A
BURNS HARBOR      78      50/  7/  8 1009.8S
SAINT JOSEPH      78     270/  4/  5 1010.8
SOUTH LAKE BUOY   70 71  360/  6/  8 1009.5          1/ 4
4 MI NW BRIDGMAN  76 76  320/  2/  4 1009.4R         1
MICHIGAN CITY     78 78     CALM       N/A           1

$$
&&




USA.gov is the U.S. government's official web portal to all federal, state and local government web resources and services.